Location: Brno
(49.2000°N, 16.6330°E)
Time: 16:31:31
(UTC+02:00)

ISS - Visible Passes

Search period start: 30 May 2016 00:00
Search period end: 09 June 2016 00:00
Orbit: 402 x 404 km, 51.6° (Epoch: 30 May)

Date Brightness Start Highest point End Pass type
(mag) Time Alt. Az. Time Alt. Az. Time Alt. Az.
30 May -2.9 01:08:09 10° WNW 01:11:25 62° N 01:14:40 10° E visible
30 May -3.0 02:44:41 10° WNW 02:47:49 42° SSW 02:50:56 10° SE visible
30 May -3.1 22:38:38 10° W 22:41:55 73° NNW 22:45:11 10° ENE visible
31 May -2.6 00:15:21 10° WNW 00:18:35 54° N 00:21:48 10° E visible
31 May -3.5 01:51:52 10° WNW 01:55:07 67° SSW 01:56:20 34° SE visible
31 May -3.4 21:45:51 10° WSW 21:49:07 84° SSE 21:52:24 10° ENE visible
31 May -2.5 23:22:31 10° W 23:25:43 53° N 23:28:56 10° ENE visible
01 Jun -3.4 00:59:05 10° WNW 01:02:22 86° NNE 01:03:26 39° ESE visible
01 Jun -0.8 02:35:51 10° W 02:35:57 11° W 02:35:57 11° W visible
01 Jun -2.6 22:29:38 10° W 22:32:52 57° N 22:36:07 10° ENE visible
02 Jun -3.0 00:06:18 10° WNW 00:09:33 66° NNE 00:11:37 20° E visible
02 Jun -1.6 01:42:51 10° W 01:44:11 21° W 01:44:11 21° W visible
02 Jun -2.9 21:36:46 10° W 21:40:02 68° NNW 21:43:18 10° ENE visible
02 Jun -2.7 23:13:28 10° WNW 23:16:42 56° N 23:19:56 10° E visible
03 Jun -3.0 00:49:58 10° WNW 00:52:43 50° WSW 00:52:43 50° WSW visible
03 Jun -2.5 22:20:38 10° WNW 22:23:51 53° N 22:27:03 10° E visible
03 Jun -3.5 23:57:10 10° WNW 00:00:27 86° SSW 00:01:22 44° ESE visible
04 Jun -3.1 23:04:22 10° WNW 23:07:39 71° NNE 23:10:07 16° E visible
05 Jun -1.7 00:40:58 10° W 00:42:42 24° WSW 00:42:42 24° WSW visible
05 Jun -2.8 22:11:33 10° WNW 22:14:48 58° N 22:18:02 10° E visible
05 Jun -3.2 23:48:03 10° WNW 23:51:15 51° SSW 23:51:31 50° S visible
06 Jun -3.4 22:55:14 10° WNW 22:58:30 78° SSW 23:00:22 23° ESE visible
07 Jun -0.9 00:32:16 10° W 00:32:57 13° WSW 00:32:57 13° WSW visible
07 Jun -3.2 22:02:25 10° WNW 22:05:42 77° NNE 22:08:57 10° ESE visible
07 Jun -2.2 23:39:04 10° W 23:41:51 28° SW 23:41:51 28° SW visible
08 Jun -2.9 22:46:06 10° WNW 22:49:15 45° SSW 22:50:47 25° SSE visible
